COSMOS 1275 DEB, 39953

Orbit data source: Space-Track

COSMOS 1275 DEB, 39953 is space debris in LEO originally from a launch on Thu, 04 Jun 1981 UTC launched from the Plesetsk Missile And Space Complex (PKMTR). Debris objects in space refer to the collection of defunct objects orbiting the Earth. Examples of debris include non-operational satellites, rocket bodies, and fragments generated from explosions, collisions, or faulty payload assembly.

Loading next visibility...
Identifier
39953, 1981-053NP
Orbit
LEO
Country
Flag of CISCIS
Related business
Manufacturer
Unknown
Mission
Spacecraft
Bus & Motor
Unknown
Mass
Unknown
Launch date (UTC)
1981-06-04 (45 years ago)
Launch vehicle
Unknown
Launch site
Plesetsk Missile And Space Complex (PKMTR)
Object type
Payload
Rocket body
Debris
Shape & HBR
Unknown shape, 1.1 m
Radar Cross Section
Small (<0.1 m²)

Expand to show TLE details & history
Last TLE update: 1 year ago

TLE from 1 year ago
0 COSMOS 1275 DEB
1 39953U 81053NP  25226.51591066  .00000122  00000-0  13908-3 0  9995
2 39953  82.9728 322.8720 0179235  67.2313 306.8259 13.55031655 12134
Epoch: 2025-08-14T12:22Z
TLE epoch observation values (Epoch: 2025-08-14T12:22:54.681Z)
Latitude
12.25614°
Longitude
175.49186°
Altitude
977.619 km
Speed
7.402 km/s
True Right ascension
21h 37m 35s
True Declination
12° 11' 14"
Sunlit
Object was in full shadow at epoch
Visualization orbit readout
Latitude
Unknown
Longitude
Unknown
Altitude
Unknown
Speed
Unknown
Apparent Right ascension
Unknown
Apparent Declination
Unknown
Sunlit
N/A
Visualization observer readout
Local Sidereal Time
04:44:16
Azimuth
Unknown
Elevation
Unknown
Doppler factor
Unknown
Orbital elements
Apogee altitude
1,184.133 km
Perigee altitude
917.822 km
Semi-major axis
7,429.114 km
Eccentricity
0.01792
Inclination
82.9728°
RAAN
322.872°
Arg. of periapsis
67.2313°
True anomaly
305.15972°
Mean anomaly
306.8259°
Eccentric anomaly
305.99504°
Mean motion
3.38952 °/min
Orbital period
106.21 mins
BSTAR
0.00013908
Loading maneuver chart data...
Computing Atmospheric mass density...
Loading historical data...
Loading historical data...
Loading historical data...
Loading historical data...
Loading historical data...
Loading historical data...
Loading historical data...

Documentation

Showing up to 5 results
|